Location: Hermaringen
(48.5952°N, 10.2585°E)
Time: 02:30:22
(UTC+00:00)

Cosmos 2082 Rocket - Pass Details

Date: 18 November 2025
Orbit: 834 x 851 km, 71.0° (Epoch: 04 December)

Event Time Altitude Azimuth Distance (km) Brightness Sun altitude
Rises 17:31:22 0° 330° (NNW) 3,392 5.6 -18.8°
Reaches altitude 10° 17:33:50 10° 327° (NNW) 2,454 4.9 -19.2°
Maximum altitude 17:39:23 66° 247° (WSW) 912 2.5 -20.2°
Drops below altitude 10° 17:44:56 10° 166° (SSE) 2,440 4.5 -21.1°
Sets 17:47:22 0° 164° (SSE) 3,372 5.2 -21.5°
